Content
SEND FEEDBACK

Daily
Averages
Monthly
Summary
United States of America

NAPERVILLE, ILLINOIS


Home > North America > United States > Illinois
Elevation: 687 feet     Latitude: 41 49N     Longitude: 088 04W

WEATHER
 
SELECT A DAY
Number of Records: 196,551;   Date Range: 1/1/95 - 7/26/14
 
SHARE

PRINT THIS DATA

[ ← Previous Day ]
WEATHER ALMANAC - MAY 4, 2013
[ Next Day → ]
[ °C ]   °F
Weather ElementAverageHighLow
Temperature58.2 °F70 °F (1:51 pm)48 °F (2:51 am)
Dewpoint45.9 °F48.9 °F (1:51 pm)43 °F (9:51 pm)
Humidity66 %90 % (1:51 am)47 % (11:51 am)
Barometer29.98 in30.04 in (8:51 pm)29.95 in (2:51 am)
Wind Speed7.2 mph16.1 mph (1:51 pm)
Weather ElementAverage
Visibility10 mi
Wind DirectionENE (59.6 °)

Weather ElementTotal
Precipitation0.02 in
Heating Degree Days6 (Base 65)
Growing Degree Days9 (Base 50)
Averaged from 23 records on May 4, 2013
WEATHER CONDITIONS BREAKOUT
WIND DIRECTION BREAKOUT
WEATHER BY HOUR - MAY 4, 2013
[ °C ]   °F
Local TimeTemperatureDewpointHumidityBarometerVisibilityWind DirectionWind SpeedGust SpeedPrecipitationEventsConditions
1:51 AM48.9 °F46.0 °F90 %29.96 in10.0 miCalmOvercast
2:51 AM48.0 °F45.0 °F89 %29.95 in10.0 miNorth (10°)5.8 mphOvercast
3:51 AM48.0 °F45.0 °F89 %29.96 in10.0 miNNE (20°)4.6 mphOvercast
4:51 AM48.0 °F45.0 °F89 %29.96 in10.0 miNNE (20°)4.6 mphOvercast
5:51 AM48.0 °F45.0 °F89 %29.97 in10.0 miNNE (30°)4.6 mphMostly Cloudy
6:51 AM48.9 °F45.0 °F86 %29.97 in10.0 miNNE (20°)4.6 mphMostly Cloudy
7:51 AM51.1 °F45.0 °F80 %29.99 in10.0 miNE (40°)3.5 mphOvercast
8:51 AM55.9 °F46.9 °F72 %29.99 in10.0 miNE (40°)4.6 mph0.02 inMostly Cloudy
9:51 AM63.0 °F48.0 °F58 %29.99 in10.0 miESE (120°)9.2 mphMostly Cloudy
10:51 AM64.9 °F46.9 °F52 %29.99 in10.0 miEast (100°)8.1 mphMostly Cloudy
11:51 AM68.0 °F46.9 °F47 %29.99 in10.0 miEast (80°)6.9 mphMostly Cloudy
12:51 PM68.0 °F48.0 °F49 %29.97 in10.0 miEast (80°)9.2 mphMostly Cloudy
1:51 PM70.0 °F48.9 °F47 %29.97 in10.0 miENE (70°)16.1 mphMostly Cloudy
2:51 PM70.0 °F48.9 °F47 %29.96 in10.0 miENE (70°)12.7 mphMostly Cloudy
3:51 PM69.1 °F48.0 °F47 %29.96 in10.0 miNE (50°)15.0 mphMostly Cloudy
4:51 PM68.0 °F46.9 °F47 %29.96 in10.0 miENE (60°)13.8 mphMostly Cloudy
5:51 PM66.9 °F46.9 °F49 %29.96 in10.0 miENE (60°)11.5 mphMostly Cloudy
6:51 PM63.0 °F45.0 °F52 %29.98 in10.0 miENE (60°)12.7 mphMostly Cloudy
7:51 PM57.0 °F45.0 °F64 %30.00 in10.0 miNNE (30°)6.9 mphMostly Cloudy
8:51 PM55.0 °F44.1 °F67 %30.04 in10.0 miNE (50°)3.5 mphMostly Cloudy
9:51 PM54.0 °F43.0 °F66 %30.04 in10.0 miNNE (20°)3.5 mphOvercast
10:51 PM52.0 °F43.0 °F71 %30.04 in10.0 miCalmMostly Cloudy
11:51 PM52.0 °F43.0 °F71 %30.03 in10.0 miNNW (340°)3.5 mphMostly Cloudy
Hourly data recorded from KORD, located miles away from Naperville, Illinois







STORIES FROM OUR PARTNERS